Hauptseite
METAR-TAF:

METAR-TAF

Flughäfen :

Bohrplattform

K13-a, Niederlande

Breite: 53-13-04N, Länge: 3-13-13E, Höhe: 31 m

Beobachtung

Neuester Wetterbericht von vor 22 Minuten, um 18:25 UTC
Wind 11 kt aus West/Nordwest
Temperatur 6°C
Luftfeuchtigkeit 75%
Luftdruck 1021 hPa

METAR: EHJR 181825Z AUTO 29011KT //// // ///////// 06/02 Q1021 RE// W07/H30

Zeit: 19:47 (18:47 UTC)


TAF: fehlend

Wetterbeobachtungen und Prognosen von mehr als 4000 Flughäfen (METAR und TAF Bericht).

Die verfügbaren Stationen werden durch gelbe und rote Markierungen auf der Karte dargestellt.

Führen Sie die Maus auf sie, um den Namen der Station zu sehen.

Darauf klicken, um die Beobachtung von Wetterbeobachtungen und Prognosen zu sehen.

Um die Karte zu ändern : klicken Sie auf den grünen Tasten mit einem schwarzen Kreuz Zum Vergrößern, auf den grünen Button mit einem Gedankenstrich zu verkleinern, oder auf die grünen Pfeile für benachbarte Karten.


METAR-TAF: